Tracking 27124 objects as of 31-Mar-2023
HD Live streaming from Space Station
objects crossing your sky now

SL-8 DEB

Track SL-8 DEB now!
10-day predictions


NORAD ID: 21137
Int'l Code: 1991-009P
Perigee: 1,487.4 km
Apogee: 1,729.1 km
Inclination: 74.0 °
Period: 118.2 minutes
Semi major axis: 7979 km
RCS: 0.3349 m2 (medium)
Launch date: February 12, 1991
Source: Commonwealth of Independent States (former USSR) (CIS)
Launch site: PLESETSK MISSILE AND SPACE COMPLEX (PKMTR)

Note: This is SATELLITE DEBRIS
Your satellite tracking list
Your tracking list is empty




NASA's NSSDC Master Catalog

Two Line Element Set (TLE):
1 21137U 91009P   23089.69756735 -.00000052  00000-0 -35816-3 0  9998
2 21137  74.0414 278.1500 0151434 210.1529 226.1402 12.18037144427514
Source of the keplerian elements: AFSPC